When you browse on this site, cookies collect data to enhance your experience and personalize the content and advertising you see.
Visit our Privacy Policy to learn more. By continuing to use the site, you agree to this use of cookies and data.
  • Em Portugal
  • Lista de países
  • Para 7 dias
  • Temperatura da água
  • Mapas de satélite
  • Mapa do tempo
  • Widgets de tempo
  • user-avatar
    Iniciar Sessão

    Previsão horária em Korostino

    Hoje, 18 Fevereiro, Segunda-feira

    Tempo Temperatura Precipitação Vento Pressão Humidade
    00:00 -5°C° 0 mm 4 m/s 740 mmHg 80%
    01:00 -7°C° 0 mm 4 m/s 740 mmHg 82%
    02:00 -6°C° 0 mm 3 m/s 741 mmHg 84%
    03:00 -7°C° 0 mm 3 m/s 742 mmHg 86%
    04:00 -7°C° 0 mm 3 m/s 742 mmHg 87%
    05:00 -7°C° 0 mm 3 m/s 743 mmHg 88%
    06:00 -7°C° 0 mm 3 m/s 743 mmHg 88%
    07:00 -7°C° 0 mm 3 m/s 744 mmHg 88%
    08:00 -7°C° 0 mm 3 m/s 744 mmHg 88%
    09:00 -6°C° 0 mm 2 m/s 745 mmHg 85%
    10:00 -5°C° 0 mm 2 m/s 745 mmHg 82%
    11:00 -4°C° 0 mm 2 m/s 745 mmHg 78%
    12:00 -4°C° 0 mm 2 m/s 746 mmHg 75%
    13:00 -3°C° 0 mm 2 m/s 746 mmHg 72%
    14:00 -1°C° 0 mm 1 m/s 746 mmHg 69%
    15:00 -2°C° 0 mm 1 m/s 746 mmHg 73%
    16:00 -3°C° 0 mm 1 m/s 745 mmHg 77%
    17:00 -3°C° 0 mm 1 m/s 745 mmHg 82%
    18:00 -4°C° 0 mm 1 m/s 745 mmHg 83%
    19:00 -4°C° 0 mm 1 m/s 745 mmHg 84%
    20:00 -6°C° 0 mm 2 m/s 745 mmHg 85%
    21:00 -6°C° 0 mm 2 m/s 745 mmHg 84%
    22:00 -6°C° 0 mm 2 m/s 745 mmHg 83%
    23:00 -7°C° 0 mm 3 m/s 744 mmHg 82%

    Amanhã, 19 Fevereiro, Terça-feira

    Tempo Temperatura Precipitação Vento Pressão Humidade
    00:00 -7°C° 0 mm 3 m/s 744 mmHg 81%
    01:00 -7°C° 0 mm 4 m/s 743 mmHg 79%
    02:00 -7°C° 0 mm 4 m/s 743 mmHg 78%
    03:00 -7°C° 0 mm 4 m/s 742 mmHg 77%
    04:00 -7°C° 0 mm 4 m/s 742 mmHg 76%
    05:00 -7°C° 0 mm 5 m/s 741 mmHg 75%
    06:00 -6°C° 0 mm 5 m/s 741 mmHg 77%
    07:00 -6°C° 0 mm 5 m/s 740 mmHg 78%
    08:00 -6°C° 0 mm 5 m/s 740 mmHg 80%
    09:00 -5°C° 0 mm 5 m/s 739 mmHg 79%
    10:00 -4°C° 0 mm 5 m/s 739 mmHg 78%
    11:00 -1°C° 0 mm 5 m/s 738 mmHg 77%
    12:00 -1°C° 0 mm 5 m/s 738 mmHg 78%
    13:00 -1°C° 0 mm 5 m/s 737 mmHg 78%
    14:00 0°C° 0 mm 5 m/s 737 mmHg 78%
    15:00 -1°C° 0 mm 5 m/s 736 mmHg 80%
    16:00 -1°C° 0 mm 5 m/s 736 mmHg 83%
    17:00 -2°C° 0 mm 5 m/s 735 mmHg 85%
    18:00 -2°C° 0 mm 5 m/s 735 mmHg 86%
    19:00 -2°C° 0 mm 5 m/s 734 mmHg 87%
    20:00 -2°C° 0 mm 5 m/s 734 mmHg 88%
    21:00 -2°C° 0 mm 5 m/s 733 mmHg 89%
    22:00 -1°C° 0 mm 5 m/s 732 mmHg 90%
    23:00 -1°C° 0 mm 5 m/s 731 mmHg 90%

    Depois de amanhã, 20 Fevereiro, Quarta-feira

    Tempo Temperatura Precipitação Vento Pressão Humidade
    00:00 -1°C° 0 mm 5 m/s 731 mmHg 91%
    01:00 -1°C° 0 mm 5 m/s 730 mmHg 91%
    02:00 -1°C° 0 mm 5 m/s 729 mmHg 91%
    03:00 -1°C° 0.4 mm 5 m/s 729 mmHg 91%
    04:00 0°C° 0.4 mm 5 m/s 729 mmHg 91%
    05:00 0°C° 0.4 mm 5 m/s 728 mmHg 91%
    06:00 0°C° 0.1 mm 5 m/s 729 mmHg 92%
    07:00 0°C° 0.1 mm 5 m/s 729 mmHg 92%
    08:00 0°C° 0.1 mm 5 m/s 729 mmHg 92%
    09:00 0°C° 0.2 mm 5 m/s 729 mmHg 90%
    10:00 0°C° 0.2 mm 5 m/s 729 mmHg 88%
    11:00 0°C° 0.2 mm 5 m/s 728 mmHg 85%
    12:00 0°C° 0.1 mm 5 m/s 728 mmHg 85%
    13:00 0°C° 0.1 mm 5 m/s 728 mmHg 84%
    14:00 0°C° 0.1 mm 5 m/s 728 mmHg 84%
    15:00 0°C° 0.4 mm 5 m/s 727 mmHg 84%
    16:00 0°C° 0.4 mm 5 m/s 727 mmHg 85%
    17:00 0°C° 0.4 mm 5 m/s 727 mmHg 86%
    18:00 -1°C° 0.3 mm 5 m/s 727 mmHg 82%
    19:00 -3°C° 0.3 mm 6 m/s 727 mmHg 77%
    20:00 -3°C° 0.3 mm 6 m/s 727 mmHg 73%
    21:00 -4°C° 0.1 mm 6 m/s 727 mmHg 76%
    22:00 -5°C° 0.1 mm 5 m/s 727 mmHg 79%
    23:00 -6°C° 0.1 mm 5 m/s 727 mmHg 82%

    21 Fevereiro, Quinta-feira

    Tempo Temperatura Precipitação Vento Pressão Humidade
    00:00 -6°C° 0.3 mm 6 m/s 728 mmHg 83%
    01:00 -6°C° 0.3 mm 6 m/s 728 mmHg 84%
    02:00 -6°C° 0.3 mm 6 m/s 728 mmHg 85%
    03:00 -6°C° 0.3 mm 6 m/s 728 mmHg 84%
    04:00 -6°C° 0.3 mm 6 m/s 729 mmHg 82%
    05:00 -6°C° 0.3 mm 6 m/s 729 mmHg 81%
    06:00 -8°C° 0.2 mm 7 m/s 729 mmHg 79%
    07:00 -8°C° 0.2 mm 7 m/s 730 mmHg 78%
    08:00 -8°C° 0.2 mm 7 m/s 731 mmHg 76%
    09:00 -9°C° 0.1 mm 7 m/s 731 mmHg 76%
    10:00 -9°C° 0.1 mm 7 m/s 732 mmHg 76%
    11:00 -9°C° 0.1 mm 7 m/s 733 mmHg 76%
    12:00 -9°C° 0.1 mm 7 m/s 734 mmHg 75%
    13:00 -9°C° 0.1 mm 7 m/s 735 mmHg 73%
    14:00 -9°C° 0.1 mm 7 m/s 735 mmHg 72%
    15:00 -9°C° 0.1 mm 7 m/s 736 mmHg 72%
    16:00 -11°C° 0.1 mm 7 m/s 737 mmHg 73%
    17:00 -10°C° 0.1 mm 6 m/s 738 mmHg 74%
    18:00 -11°C° 0 mm 6 m/s 739 mmHg 74%
    19:00 -11°C° 0 mm 6 m/s 740 mmHg 74%
    20:00 -12°C° 0 mm 6 m/s 741 mmHg 74%
    21:00 -12°C° 0 mm 6 m/s 742 mmHg 74%
    22:00 -12°C° 0 mm 5 m/s 743 mmHg 74%
    23:00 -13°C° 0 mm 5 m/s 743 mmHg 74%

    22 Fevereiro, Sexta-feira

    Tempo Temperatura Precipitação Vento Pressão Humidade
    00:00 -13°C° 0 mm 5 m/s 744 mmHg 75%
    01:00 -13°C° 0 mm 5 m/s 745 mmHg 75%
    02:00 -14°C° 0 mm 5 m/s 746 mmHg 76%
    03:00 -14°C° 0 mm 5 m/s 746 mmHg 76%
    04:00 -14°C° 0 mm 5 m/s 747 mmHg 77%
    05:00 -15°C° 0 mm 5 m/s 747 mmHg 77%
    06:00 -14°C° 0 mm 5 m/s 748 mmHg 77%
    07:00 -14°C° 0 mm 5 m/s 749 mmHg 76%
    08:00 -14°C° 0 mm 5 m/s 750 mmHg 76%
    09:00 -13°C° 0 mm 5 m/s 750 mmHg 73%
    10:00 -12°C° 0 mm 5 m/s 751 mmHg 70%
    11:00 -12°C° 0 mm 5 m/s 751 mmHg 67%
    12:00 -11°C° 0 mm 5 m/s 752 mmHg 66%
    13:00 -11°C° 0 mm 5 m/s 752 mmHg 65%
    14:00 -10°C° 0 mm 5 m/s 752 mmHg 63%
    15:00 -11°C° 0 mm 5 m/s 752 mmHg 67%
    16:00 -11°C° 0 mm 5 m/s 753 mmHg 71%
    17:00 -11°C° 0 mm 4 m/s 753 mmHg 75%
    18:00 -11°C° 0 mm 4 m/s 754 mmHg 77%
    19:00 -11°C° 0 mm 4 m/s 754 mmHg 79%
    20:00 -12°C° 0 mm 4 m/s 755 mmHg 82%
    21:00 -12°C° 0 mm 4 m/s 755 mmHg 84%
    22:00 -12°C° 0 mm 3 m/s 755 mmHg 87%
    23:00 -12°C° 0 mm 2 m/s 756 mmHg 90%

    23 Fevereiro, Sábado

    Tempo Temperatura Precipitação Vento Pressão Humidade
    00:00 -12°C° 0 mm 2 m/s 756 mmHg 91%
    01:00 -12°C° 0 mm 2 m/s 756 mmHg 91%
    02:00 -10°C° 0 mm 1 m/s 756 mmHg 92%
    03:00 -10°C° 0 mm 1 m/s 755 mmHg 89%
    04:00 -9°C° 0 mm 1 m/s 755 mmHg 85%
    05:00 -10°C° 0 mm 2 m/s 755 mmHg 82%
    06:00 -9°C° 0 mm 2 m/s 754 mmHg 77%
    07:00 -10°C° 0 mm 3 m/s 754 mmHg 71%
    08:00 -9°C° 0 mm 3 m/s 754 mmHg 66%
    09:00 -10°C° 0.1 mm 4 m/s 753 mmHg 71%
    10:00 -9°C° 0.1 mm 4 m/s 752 mmHg 75%
    11:00 -10°C° 0.1 mm 5 m/s 752 mmHg 79%
    12:00 -10°C° 0.5 mm 5 m/s 751 mmHg 83%
    13:00 -10°C° 0.5 mm 5 m/s 751 mmHg 87%
    14:00 -9°C° 0.5 mm 4 m/s 750 mmHg 91%
    15:00 -8°C° 0.3 mm 4 m/s 750 mmHg 91%
    16:00 -8°C° 0.3 mm 4 m/s 749 mmHg 91%
    17:00 -8°C° 0.3 mm 4 m/s 749 mmHg 90%
    18:00 -8°C° 0.1 mm 4 m/s 749 mmHg 91%
    19:00 -6°C° 0.1 mm 3 m/s 749 mmHg 92%
    20:00 -6°C° 0.1 mm 3 m/s 749 mmHg 93%
    21:00 -6°C° 0 mm 3 m/s 748 mmHg 93%
    22:00 -6°C° 0 mm 3 m/s 748 mmHg 94%
    23:00 -6°C° 0 mm 3 m/s 748 mmHg 94%
    Mostrar mais